Location: Br�ttisellen
(47.4227°N, 8.6287°E)
Time: 04:48:10
(UTC+00:00)

Cosmos 2233 Rocket - Pass Details

Date: 09 April 2020
Orbit: 952 x 991 km, 82.9° (Epoch: 31 May)

Event Time Altitude Azimuth Distance (km) Brightness Sun altitude
Rises 23:40:31 0° 351° (N) 3,701 8.0 -34.5°
Reaches altitude 10° 23:43:03 10° 352° (N) 2,744 7.1 -34.4°
Enters shadow 23:48:00 58° 1° (N) 1,135 4.5 -34.3°
